STARLINK-32579, 61922

Orbit data source: Space-Track

STARLINK-32579, 61922 is a payload satellite owned by SpaceX/Seattle (US) in LEO that was launched on Mon, 11 Nov 2024 UTC via an FALCON 9 launch vehicle from the Air Force Eastern Test Range (AFETR). Payload-class satellites include a variety of spacecraft equipped with specific instruments for various scientific and technological missions. These include communications satellites like Starlink; space stations such as the ISS; scientific satellites like the Hubble; Earth observation satellites from companies like Planet Labs, Umbra, and HawkEye 360; GPS; miniature CubeSats for education and research; and military/defense satellites.

Loading next visibility...
Identifier
61922, 2024-207L
Orbit
LEO
Country
Flag of USUS
Related business
Manufacturer
SpaceX/Seattle
Mission
Operational Commercial Communications
Bus & Motor
STARLINK V2M, Unknown motor
Mass
730 kg wet, ~700 kg dry
Launch date (UTC)
2024-11-11 (1 year ago)
Launch vehicle
FALCON 9
Launch site
Air Force Eastern Test Range (AFETR)
Object type
Payload
Rocket body
Debris
Shape & HBR
Box + 2 Pan, 17.7 m
Radar Cross Section
33.884 m², Large (>1 m²)

Expand to show TLE details & history
Last TLE update: 11 hours ago

TLE from 11 hours ago
0 STARLINK-32579
1 61922U 24207L   26073.22803445  .00038866  00000-0  14141-2 0  9995
2 61922  42.9998 259.7895 0001186 268.2716  91.8000 15.27587131 75376
Epoch: 2026-03-14T05:28Z
TLE epoch observation values (Epoch: 2026-03-14T05:28:22.176Z)
Latitude
-0°
Longitude
5.84486°
Altitude
482.829 km
Speed
7.626 km/s
True Right ascension
17h 19m 09s
True Declination
0° 00' 00"
Sunlit
Object was in daylight at epoch
Visualization orbit readout
Latitude
Unknown
Longitude
Unknown
Altitude
Unknown
Speed
Unknown
Apparent Right ascension
Unknown
Apparent Declination
Unknown
Sunlit
N/A
Visualization observer readout
Local Sidereal Time
20:51:32
Azimuth
Unknown
Elevation
Unknown
Doppler factor
Unknown
Orbital elements
Apogee altitude
485.787 km
Perigee altitude
484.159 km
Semi-major axis
6,863.11 km
Eccentricity
0.00012
Inclination
42.9998°
RAAN
259.7895°
Arg. of periapsis
268.2716°
True anomaly
91.81358°
Mean anomaly
91.8°
Eccentric anomaly
91.80679°
Mean motion
3.81735 °/min
Orbital period
94.31 mins
BSTAR
0.0014141
Loading maneuver chart data...
Computing Atmospheric mass density...
Loading historical data...
Loading historical data...
Loading historical data...
Loading historical data...
Loading historical data...
Loading historical data...
Loading historical data...

Documentation

Showing up to 5 results
|